Location: Unspecified
(44.4377°N, 88.0525°W)
Time: 12:38:53
(UTC-05:00)

Cosmos 2058 - Visible Passes

Search period start: 24 September 2017 00:00
Search period end: 04 October 2017 00:00
Orbit: 564 x 585 km, 82.5° (Epoch: 23 September)

Date Brightness Start Highest point End Pass type
(mag) Time Alt. Az. Time Alt. Az. Time Alt. Az.
24 Sep 5.9 22:12:24 10° N 22:12:46 12° N 22:12:46 12° N visible
25 Sep 5.9 22:15:45 10° NNW 22:16:07 12° NNW 22:16:07 12° NNW visible
26 Sep 6.0 22:19:09 10° NNW 22:19:30 12° NNW 22:19:30 12° NNW visible
27 Sep 5.4 20:46:13 10° NNE 20:46:40 12° NNE 20:46:40 12° NNE visible
27 Sep 6.1 22:22:37 10° NNW 22:22:53 12° NNW 22:22:53 12° NNW visible
28 Sep 5.2 20:49:13 10° NNE 20:50:04 14° NNE 20:50:04 14° NNE visible
28 Sep 6.2 22:26:08 10° NNW 22:26:18 11° NNW 22:26:18 11° NNW visible
29 Sep 5.1 20:52:20 10° N 20:53:30 17° NNE 20:53:30 17° NNE visible
30 Sep 4.9 20:55:30 10° N 20:56:56 20° NNE 20:56:56 20° NNE visible
01 Oct 4.8 20:58:43 10° N 21:00:25 23° N 21:00:25 23° N visible
02 Oct 4.6 21:01:59 10° N 21:03:55 26° N 21:03:55 26° N visible
03 Oct 4.6 21:05:18 10° NNW 21:07:28 29° NNW 21:07:28 29° NNW visible
